CW5066 Weather Reports


time (UTC)temp
F
wind
direction
speed
knots
gust
knots
rain 1hr
in
rain 24hr
in
rain mn
in
humidity
%
barometer
mb
20260902232537 63 338 2.6 7.0 0.00 0.00 0.00 47 1024.4
20260902231517 62 293 6.1 13.0 0.00 0.00 0.00 49 1024.1
20260902230537 62 270 5.2 11.3 0.00 0.00 0.00 49 1024.1
20260902225517 62 293 3.5 6.1 0.00 0.00 0.00 46 1023.8
20260902224517 61 293 2.6 6.1 0.00 0.00 0.00 47 1024.1
20260902223537 60 203 7.8 17.4 0.00 0.00 0.00 49 1024.2
20260902222516 62 203 8.7 23.5 0.00 0.00 0.00 42 1024.7
20260902221536 63 203 7.8 18.2 0.00 0.00 0.00 39 1024.9
20260902220516 66 113 0.9 4.3 0.00 0.00 0.00 40 1026.1
20260902215516 66 23 0.9 4.3 0.00 0.00 0.00 40 1025.7
20260902214516 67 113 2.6 7.0 0.00 0.00 0.00 36 1026.3
20260902213517 67 90 2.6 8.7 0.00 0.00 0.00 37 1025.8
20260902212537 67 113 1.7 5.2 0.00 0.00 0.00 37 1026.0
20260902211516 67 0.0 2.6 0.00 0.00 0.00 36 1025.9
20260902210516 67 68 0.9 3.5 0.00 0.00 0.00 37 1026.3
20260902205536 67 113 1.7 3.5 0.00 0.00 0.00 36 1026.3
20260902204516 68 113 1.7 6.1 0.00 0.00 0.00 35 1026.5
20260902203517 68 113 0.9 4.3 0.00 0.00 0.00 36 1027.2
20260902202556 68 180 2.6 7.8 0.00 0.00 0.00 33 1027.0
20260902201516 67 0.0 1.7 0.00 0.00 0.00 34 1027.3
20260902200516 68 158 1.7 7.0 0.00 0.00 0.00 33 1027.8
20260902195516 69 158 1.7 7.0 0.00 0.00 0.00 31 1027.9
20260902194517 70 180 2.6 8.7 0.00 0.00 0.00 31 1028.5
20260902193516 70 135 3.5 9.6 0.00 0.00 0.00 31 1027.9
20260902192516 69 158 3.5 9.6 0.00 0.00 0.00 33 1028.2
20260902191516 71 180 1.7 7.0 0.00 0.00 0.00 32 1028.9
20260902190516 69 135 2.6 7.0 0.00 0.00 0.00 33 1028.9
20260902185516 66 90 1.7 5.2 0.00 0.00 0.00 39 1028.1
20260902184516 65 113 1.7 6.1 0.00 0.00 0.00 37 1028.3
20260902183536 65 113 1.7 5.2 0.00 0.00 0.00 36 1028.5
20260902182516 65 158 2.6 7.8 0.00 0.00 0.00 31 1028.3
20260902181516 65 180 4.3 8.7 0.00 0.00 0.00 31 1028.3
20260902180536 67 158 4.3 11.3 0.00 0.00 0.00 30 1029.3
20260902175516 66 180 4.3 10.4 0.00 0.00 0.00 31 1029.0
20260902174516 66 248 3.5 7.8 0.00 0.00 0.00 31 1029.0
20260902173516 65 225 4.3 11.3 0.00 0.00 0.00 32 1028.6
20260902172516 65 203 7.0 19.1 0.00 0.00 0.00 33 1028.9
20260902171536 64 203 5.2 11.3 0.00 0.00 0.00 35 1028.8
20260902170515 64 180 7.8 13.0 0.00 0.00 0.00 34 1028.3
20260902165516 63 225 6.1 13.9 0.00 0.00 0.00 34 1028.1
20260902164535 64 225 7.0 13.9 0.00 0.00 0.00 35 1028.3
20260902163516 63 225 5.2 13.0 0.00 0.00 0.00 37 1028.2
20260902162516 62 225 7.0 11.3 0.00 0.00 0.00 37 1028.0
20260902161515 63 203 8.7 13.9 0.00 0.00 0.00 37 1027.9
20260902160516 62 203 7.8 14.8 0.00 0.00 0.00 37 1028.0
20260902155515 62 225 7.0 12.2 0.00 0.00 0.00 38 1028.1
20260902154515 61 225 5.2 11.3 0.00 0.00 0.00 41 1028.2
20260902153516 61 225 5.2 9.6 0.00 0.00 0.00 40 1028.1
20260902152515 61 225 5.2 12.2 0.00 0.00 0.00 40 1028.0
20260902151515 60 225 7.8 16.5 0.00 0.00 0.00 41 1028.2
20260902150515 60 203 7.8 17.4 0.00 0.00 0.00 41 1027.9
20260902145515 59 225 4.3 8.7 0.00 0.00 0.00 43 1028.0
20260902144515 58 225 2.6 6.1 0.00 0.00 0.00 43 1027.3
20260902143535 57 180 2.6 7.0 0.00 0.00 0.00 44 1027.4
20260902142515 56 158 2.6 7.0 0.00 0.00 0.00 44 1027.3
20260902141515 56 203 2.6 7.0 0.00 0.00 0.00 44 1027.3
20260902140535 55 203 3.5 7.8 0.00 0.00 0.00 45 1027.3
20260902135515 55 203 5.2 7.8 0.00 0.00 0.00 45 1027.4
20260902134517 54 180 5.2 10.4 0.00 0.00 0.00 45 1026.7
20260902133517 54 203 4.3 9.6 0.00 0.00 0.00 46 1027.9
20260902132537 53 203 4.3 7.8 0.00 0.00 0.00 46 1027.9
20260902131517 53 225 1.7 4.3 0.00 0.00 0.00 46 1027.8
20260902130537 53 203 1.7 3.5 0.00 0.00 0.00 46 1027.8
20260902125517 54 225 2.6 5.2 0.00 0.00 0.00 46 1027.9
20260902124517 53 203 1.7 3.5 0.00 0.00 0.00 47 1027.8
20260902123517 53 225 1.7 2.6 0.00 0.00 0.00 47 1027.7
20260902122517 54 203 5.2 7.8 0.00 0.00 0.00 46 1027.6
20260902121517 54 203 4.3 8.7 0.00 0.00 0.00 46 1027.6
20260902120537 55 225 7.0 11.3 0.00 0.00 0.00 43 1028.5
20260902115557 55 225 7.8 11.3 0.00 0.00 0.00 43 1028.4
20260902114517 54 225 9.6 15.6 0.00 0.00 0.00 47 1027.7
20260902113517 53 225 5.2 10.4 0.00 0.00 0.00 52 1028.5
20260902112516 52 225 7.0 13.0 0.00 0.00 0.00 55 1027.9
20260902111537 51 225 5.2 10.4 0.00 0.00 0.00 56 1028.0
20260902110516 51 225 4.3 8.7 0.00 0.00 0.00 55 1027.5
20260902105516 52 248 5.2 10.4 0.00 0.00 0.00 53 1028.0
20260902104517 52 248 5.2 8.7 0.00 0.00 0.00 51 1028.1
20260902103536 53 225 5.2 8.7 0.00 0.00 0.00 51 1028.0
20260902102516 53 248 3.5 7.0 0.00 0.00 0.00 53 1028.1
20260902101516 53 225 2.6 4.3 0.00 0.00 0.00 54 1028.3
20260902100517 54 225 1.7 3.5 0.00 0.00 0.00 54 1028.4
20260902095517 54 203 1.7 2.6 0.00 0.00 0.00 54 1028.5
20260902094516 55 203 1.7 1.7 0.00 0.00 0.00 53 1028.7
20260902093516 55 180 1.7 5.2 0.00 0.00 0.00 53 1028.2
20260902092517 55 180 2.6 6.1 0.00 0.00 0.00 54 1028.2
20260902091517 54 180 1.7 3.5 0.00 0.00 0.00 55 1028.3
20260902090516 54 203 2.6 4.3 0.00 0.00 0.00 56 1027.2
20260902085517 53 180 3.5 6.1 0.00 0.00 0.00 57 1027.2
20260902084517 53 203 0.9 1.7 0.00 0.00 0.00 57 1027.3
20260902083516 54 203 1.7 2.6 0.00 0.00 0.00 56 1028.6
20260902082537 55 180 0.9 2.6 0.00 0.00 0.00 55 1028.7
20260902081537 55 203 0.9 2.6 0.00 0.00 0.00 54 1028.8
20260902080516 56 180 1.7 3.5 0.00 0.00 0.00 53 1029.6
20260902075537 56 180 1.7 3.5 0.00 0.00 0.00 53 1029.7
20260902074516 56 180 0.9 3.5 0.00 0.00 0.00 53 1029.7
20260902073517 56 203 0.9 1.7 0.00 0.00 0.00 53 1029.7
20260902072537 56 180 0.9 1.7 0.00 0.00 0.00 52 1029.6
20260902071516 56 203 0.9 1.7 0.00 0.00 0.00 52 1029.8
20260902070516 57 203 0.9 2.6 0.00 0.00 0.00 51 1029.2
20260902065516 57 180 1.7 2.6 0.00 0.00 0.00 51 1029.1
20260902064516 57 180 1.7 1.7 0.00 0.00 0.00 51 1029.3
20260902063517 57 0.0 1.7 0.00 0.00 0.00 51 1029.8
20260902062516 56 0.0 0.9 0.00 0.00 0.00 51 1029.0
20260902061516 57 180 0.9 2.6 0.00 0.00 0.00 50 1029.7
20260902060516 57 158 0.9 1.7 0.00 0.00 0.00 51 1029.2
20260902055517 57 0.0 0.9 0.00 0.00 0.00 51 1029.3
20260902054517 57 0.0 1.7 0.00 0.00 0.00 51 1029.2
20260902053517 57 180 0.9 1.7 0.00 0.00 0.00 51 1028.6
20260902052517 56 0.0 0.0 0.00 0.00 0.00 52 1028.7
20260902051516 56 0.0 0.0 0.00 0.00 0.00 52 1028.6
20260902050516 56 135 0.9 1.7 0.00 0.00 0.00 53 1028.2
20260902045516 55 0.0 0.9 0.00 0.00 0.00 54 1028.3
20260902044517 55 68 0.9 1.7 0.00 0.00 0.00 54 1028.2
20260902043516 55 68 1.7 2.6 0.00 0.00 0.00 54 1027.8
20260902042516 56 68 1.7 2.6 0.00 0.00 0.00 54 1028.0
20260902041516 56 68 1.7 1.7 0.00 0.00 0.00 54 1028.0
20260902040536 56 90 1.7 3.5 0.00 0.00 0.00 53 1027.5
20260902035516 57 45 1.7 3.5 0.00 0.00 0.00 52 1028.0
20260902034516 57 68 1.7 2.6 0.00 0.00 0.00 52 1027.9
20260902033536 57 90 0.9 1.7 0.00 0.00 0.00 54 1026.9
20260902032516 58 90 0.9 2.6 0.00 0.00 0.00 55 1027.0
20260902031516 58 68 0.9 1.7 0.00 0.00 0.00 55 1027.6
20260902030516 59 90 0.9 1.7 0.00 0.00 0.00 57 1027.7
20260902025516 59 0.0 2.6 0.00 0.01 0.00 50 1027.6
20260902024516 59 293 0.9 1.7 0.00 0.01 0.00 51 1027.5
20260902023536 60 270 0.9 4.3 0.00 0.02 0.00 49 1027.4
20260902022516 60 0.0 1.7 0.00 0.04 0.00 48 1027.2
20260902021556 60 0.0 0.0 0.00 0.06 0.00 47 1027.1
20260902020516 60 0.0 0.0 0.00 0.08 0.00 47 1027.7
20260902015516 61 0.0 0.0 0.00 0.11 0.00 47 1027.8
20260902014516 61 0.0 1.7 0.00 0.11 0.00 47 1027.7
20260902013516 62 0.0 1.7 0.00 0.11 0.00 47 1027.8
20260902012516 63 0.0 2.6 0.00 0.11 0.00 45 1027.9
20260902011516 65 113 0.9 2.6 0.00 0.11 0.00 44 1028.7
20260902010536 66 113 0.9 2.6 0.00 0.11 0.00 42 1029.5
20260902005536 66 90 1.7 6.1 0.00 0.11 0.00 42 1029.5
20260902004516 66 0.0 2.6 0.00 0.11 0.00 44 1029.4
20260902003516 64 113 0.9 3.5 0.00 0.11 0.00 46 1029.5
20260902002516 64 0.0 2.6 0.00 0.11 0.00 45 1029.5
20260902001536 65 90 1.7 5.2 0.00 0.11 0.00 44 1029.4
20260902000555 65 0.0 1.7 0.00 0.11 0.00 43 1029.4
20260901235516 66 90 0.9 4.3 0.00 0.14 0.00 41 1029.3
20260901234515 67 90 1.7 5.2 0.00 0.16 0.00 39 1029.7
20260901233516 69 90 1.7 5.2 0.00 0.16 0.00 36 1030.2